User: anonymous   Login
Location: Gull Harbor
(47.1000°N, 122.9000°W)
Time: 14:50:20
(UTC-08:00)
Language:

BlueWalker 3 - Orbit

View from above orbital plane
View from above orbital plane
View from above satellite
View from above satellite

Ground track
Ground track

The orbit data is extracted from the following two-line orbital elements,

1 53807U 22111AL  24051.17769045  .00007991  00000-0  33694-3 0  9995
2 53807  53.2375  16.6053 0010407  98.3876 261.8303 15.24184991 80223
Epoch (UTC): 20 February 2024 04:15:52
Eccentricity: 0.0010407
inclination: 53.2375°
perigee height: 486 km
apogee height: 500 km
right ascension of ascending node: 16.6053°
argument of perigee: 98.3876°
revolutions per day: 15.24184991
mean anomaly at epoch: 261.8303°
orbit number at epoch: 8022

The dashed part of the orbit path shows where the satellite is in the earth's shadow,  

DLR